Time,TemperatureF,DewpointF,PressureIn,WindDirection,WindDirectionDegrees,WindSpeedMPH,WindSpeedGustMPH,Humidity,HourlyPrecipIn,Conditions,Clouds,dailyrainin,SoftwareType,DateUTC
2013-08-05 00:02:00,69.8,52.9,30.15,ENE,70,1.1,1.1,55,0.00,-RA,OVC,0.00,WeatherDisplay:10.37,2013-08-05 06:02:00,
2013-08-05 00:07:00,69.4,52.5,30.15,ENE,70,0.0,0.0,55,0.00,-RA,OVC,0.00,WeatherDisplay:10.37,2013-08-05 06:07:00,
2013-08-05 00:12:00,68.9,53.0,30.15,ENE,70,0.0,0.0,57,0.00,-RA,OVC,0.00,WeatherDisplay:10.37,2013-08-05 06:12:00,
2013-08-05 00:17:00,68.3,52.9,30.15,ENE,70,0.0,0.0,58,0.00,-RA,OVC,0.00,WeatherDisplay:10.37,2013-08-05 06:17:00,
2013-08-05 00:22:00,67.7,52.9,30.15,ENE,70,0.0,0.0,59,0.00,-RA,OVC,0.00,WeatherDisplay:10.37,2013-08-05 06:22:00,
2013-08-05 00:27:00,67.2,52.8,30.15,ENE,70,0.0,0.0,60,0.00,-RA,OVC,0.00,WeatherDisplay:10.37,2013-08-05 06:27:00,
2013-08-05 00:32:00,66.7,52.4,30.15,ENE,70,0.0,0.0,60,0.00,-RA,OVC,0.00,WeatherDisplay:10.37,2013-08-05 06:32:00,
2013-08-05 00:37:00,66.2,53.2,30.15,ENE,70,0.0,0.0,63,0.00,-RA,OVC,0.00,WeatherDisplay:10.37,2013-08-05 06:37:00,
2013-08-05 00:42:00,65.7,52.8,30.15,ENE,70,0.0,0.0,63,0.00,-RA,OVC,0.00,WeatherDisplay:10.37,2013-08-05 06:42:00,
2013-08-05 00:47:00,65.2,52.7,30.15,ENE,70,0.0,0.0,64,0.00,-RA,OVC,0.00,WeatherDisplay:10.37,2013-08-05 06:47:00,
2013-08-05 00:52:00,64.9,52.0,30.15,ENE,70,1.1,1.1,63,0.00,-RA,OVC,0.00,WeatherDisplay:10.37,2013-08-05 06:52:00,
2013-08-05 00:57:00,64.9,51.6,30.15,ENE,70,0.0,0.0,62,0.00,-RA,OVC,0.00,WeatherDisplay:10.37,2013-08-05 06:57:00,
2013-08-05 01:02:00,65.1,50.9,30.15,ENE,70,2.3,2.3,60,0.00,-RA,OVC,0.00,WeatherDisplay:10.37,2013-08-05 07:02:00,
2013-08-05 01:07:00,65.2,51.0,30.15,ENE,70,0.0,0.1,60,0.00,-RA,OVC,0.00,WeatherDisplay:10.37,2013-08-05 07:07:00,
2013-08-05 01:12:00,65.4,51.1,30.15,ENE,70,0.0,0.0,60,0.00,-RA,OVC,0.00,WeatherDisplay:10.37,2013-08-05 07:12:00,
2013-08-05 01:17:00,65.5,50.3,30.15,ENE,70,0.0,0.0,58,0.00,-RA,OVC,0.00,WeatherDisplay:10.37,2013-08-05 07:17:00,
2013-08-05 01:22:00,65.7,50.0,30.15,ENE,70,3.5,3.5,57,0.00,-RA,OVC,0.00,WeatherDisplay:10.37,2013-08-05 07:22:00,
2013-08-05 01:27:00,66.3,49.6,30.15,ENE,70,3.5,3.5,55,0.00,-RA,OVC,0.00,WeatherDisplay:10.37,2013-08-05 07:27:00,
2013-08-05 01:32:00,66.8,49.6,30.11,ENE,68,3.5,3.5,54,0.00,-RA,OVC,0.00,WeatherDisplay:10.37,2013-08-05 07:32:00,
2013-08-05 01:37:00,67.4,49.7,30.11,ENE,68,2.3,2.3,53,0.00,-RA,OVC,0.00,WeatherDisplay:10.37,2013-08-05 07:37:00,
2013-08-05 01:42:00,68.0,49.7,30.11,ENE,68,1.1,1.1,52,0.00,-RA,OVC,0.00,WeatherDisplay:10.37,2013-08-05 07:42:00,
2013-08-05 01:47:00,68.1,50.3,30.11,ENE,68,0.0,0.0,53,0.00,-RA,OVC,0.00,WeatherDisplay:10.37,2013-08-05 07:47:00,
2013-08-05 01:52:00,67.7,49.9,30.11,ENE,68,0.0,0.0,53,0.00,-RA,OVC,0.00,WeatherDisplay:10.37,2013-08-05 07:52:00,
2013-08-05 01:57:00,67.2,50.5,30.11,ENE,68,0.0,0.0,55,0.00,-RA,OVC,0.00,WeatherDisplay:10.37,2013-08-05 07:57:00,
2013-08-05 02:02:00,66.6,50.9,30.11,ENE,68,2.3,2.3,57,0.00,-RA,OVC,0.00,WeatherDisplay:10.37,2013-08-05 08:02:00,
2013-08-05 02:07:00,65.9,50.2,30.11,ENE,68,0.0,0.0,57,0.00,-RA,OVC,0.00,WeatherDisplay:10.37,2013-08-05 08:07:00,
2013-08-05 02:12:00,65.5,49.9,30.11,ENE,68,1.1,1.1,57,0.00,-RA,OVC,0.00,WeatherDisplay:10.37,2013-08-05 08:12:00,
2013-08-05 02:17:00,65.0,50.8,30.11,ENE,68,2.3,0.0,60,0.00,-RA,OVC,0.00,WeatherDisplay:10.37,2013-08-05 08:17:00,
2013-08-05 02:22:00,64.7,50.5,30.11,ENE,68,0.0,0.0,60,0.00,-RA,OVC,0.00,WeatherDisplay:10.37,2013-08-05 08:22:00,
2013-08-05 02:27:00,64.4,50.2,30.11,ENE,68,0.0,0.0,60,0.00,-RA,OVC,0.00,WeatherDisplay:10.37,2013-08-05 08:27:00,
2013-08-05 02:32:00,64.0,51.1,30.11,ENE,68,0.0,0.0,63,0.00,-RA,OVC,0.00,WeatherDisplay:10.37,2013-08-05 08:32:00,
2013-08-05 02:38:00,63.6,51.2,30.11,ENE,68,0.0,0.0,64,0.00,-RA,OVC,0.00,WeatherDisplay:10.37,2013-08-05 08:38:00,
2013-08-05 02:43:00,63.2,51.2,30.11,ENE,68,0.0,0.0,65,0.00,-RA,OVC,0.00,WeatherDisplay:10.37,2013-08-05 08:43:00,
2013-08-05 02:49:00,62.7,50.8,30.11,ENE,68,0.0,0.0,65,0.00,-RA,OVC,0.00,WeatherDisplay:10.37,2013-08-05 08:49:00,
2013-08-05 02:55:00,62.6,50.7,30.11,ENE,68,1.1,1.1,65,0.00,-RA,OVC,0.00,WeatherDisplay:10.37,2013-08-05 08:55:00,
2013-08-05 03:00:00,62.9,50.1,30.11,ENE,68,0.0,0.0,63,0.00,-RA,OVC,0.00,WeatherDisplay:10.37,2013-08-05 09:00:00,
2013-08-05 03:05:00,63.0,51.5,30.11,ENE,68,1.1,0.0,66,0.00,-RA,OVC,0.00,WeatherDisplay:10.37,2013-08-05 09:05:00,
2013-08-05 03:12:00,63.0,51.5,30.11,ENE,68,0.0,0.0,66,0.00,-RA,OVC,0.00,WeatherDisplay:10.37,2013-08-05 09:12:00,
2013-08-05 03:17:00,62.7,51.2,30.11,ENE,68,0.0,0.0,66,0.00,-RA,OVC,0.00,WeatherDisplay:10.37,2013-08-05 09:17:00,
2013-08-05 03:22:00,62.5,51.4,30.11,ENE,68,0.0,0.0,67,0.00,-RA,OVC,0.00,WeatherDisplay:10.37,2013-08-05 09:22:00,
2013-08-05 03:27:00,62.3,50.8,30.11,ENE,68,0.0,0.0,66,0.00,-RA,OVC,0.00,WeatherDisplay:10.37,2013-08-05 09:27:00,
2013-08-05 03:33:00,62.0,50.9,30.11,ENE,68,0.0,0.0,67,0.00,-RA,OVC,0.00,WeatherDisplay:10.37,2013-08-05 09:33:00,
2013-08-05 03:40:00,61.7,51.0,30.11,ENE,68,0.0,0.0,68,0.00,-RA,OVC,0.00,WeatherDisplay:10.37,2013-08-05 09:40:00,
2013-08-05 03:45:00,61.5,51.2,30.11,ENE,68,0.0,0.0,69,0.00,-RA,OVC,0.00,WeatherDisplay:10.37,2013-08-05 09:45:00,
2013-08-05 03:50:00,61.3,50.6,30.11,ENE,68,3.5,0.0,68,0.00,-RA,OVC,0.00,WeatherDisplay:10.37,2013-08-05 09:50:00,
2013-08-05 03:55:00,61.1,50.5,30.11,ENE,68,1.1,1.1,68,0.00,-RA,OVC,0.00,WeatherDisplay:10.37,2013-08-05 09:55:00,
2013-08-05 04:00:00,61.2,50.9,30.11,ENE,68,0.0,0.0,69,0.00,-RA,OVC,0.00,WeatherDisplay:10.37,2013-08-05 10:00:00,
2013-08-05 04:07:00,61.1,50.8,30.11,ENE,68,0.0,0.0,69,0.00,-RA,OVC,0.00,WeatherDisplay:10.37,2013-08-05 10:07:00,
2013-08-05 04:12:00,61.1,50.8,30.11,ENE,68,0.0,0.0,69,0.00,-RA,OVC,0.00,WeatherDisplay:10.37,2013-08-05 10:12:00,
2013-08-05 04:17:00,60.9,50.7,30.11,ENE,68,1.1,0.0,69,0.00,-RA,OVC,0.00,WeatherDisplay:10.37,2013-08-05 10:17:00,
2013-08-05 04:22:00,60.8,50.2,30.11,ENE,68,0.0,0.0,68,0.00,-RA,OVC,0.00,WeatherDisplay:10.37,2013-08-05 10:22:00,
2013-08-05 04:27:00,60.6,50.4,30.11,ENE,68,0.0,0.0,69,0.00,-RA,OVC,0.00,WeatherDisplay:10.37,2013-08-05 10:27:00,
2013-08-05 04:32:00,60.5,50.7,30.11,ENE,68,0.0,0.0,70,0.00,-RA,OVC,0.00,WeatherDisplay:10.37,2013-08-05 10:32:00,
2013-08-05 04:37:00,60.3,50.5,30.11,ENE,68,0.0,0.0,70,0.00,-RA,OVC,0.00,WeatherDisplay:10.37,2013-08-05 10:37:00,
2013-08-05 04:44:00,60.1,50.3,30.11,ENE,68,0.0,0.0,70,0.00,-RA,OVC,0.00,WeatherDisplay:10.37,2013-08-05 10:44:00,
2013-08-05 04:50:00,59.9,50.5,30.11,ENE,68,0.0,0.0,71,0.00,-RA,OVC,0.00,WeatherDisplay:10.37,2013-08-05 10:50:00,
2013-08-05 04:55:00,59.7,50.7,30.11,ENE,68,0.0,0.0,72,0.00,-RA,OVC,0.00,WeatherDisplay:10.37,2013-08-05 10:55:00,
2013-08-05 05:00:00,59.5,50.8,30.11,ENE,68,0.0,0.0,73,0.00,-RA,OVC,0.00,WeatherDisplay:10.37,2013-08-05 11:00:00,
2013-08-05 05:05:00,59.3,51.0,30.11,ENE,68,0.0,0.0,74,0.00,-RA,OVC,0.00,WeatherDisplay:10.37,2013-08-05 11:05:00,
2013-08-05 05:10:00,59.1,51.2,30.11,ENE,68,0.0,0.1,75,0.00,-RA,OVC,0.00,WeatherDisplay:10.37,2013-08-05 11:10:00,
2013-08-05 05:15:00,58.9,51.3,30.11,ENE,68,0.0,0.0,76,0.00,-RA,OVC,0.00,WeatherDisplay:10.37,2013-08-05 11:15:00,
2013-08-05 05:20:00,58.8,51.2,30.11,ENE,68,0.0,0.0,76,0.00,-RA,OVC,0.00,WeatherDisplay:10.37,2013-08-05 11:20:00,
2013-08-05 05:26:00,58.7,51.2,30.11,ENE,68,0.0,0.0,76,0.00,-RA,OVC,0.00,WeatherDisplay:10.37,2013-08-05 11:26:00,
2013-08-05 05:31:00,58.6,51.1,30.11,ENE,68,0.0,0.0,76,0.00,-RA,OVC,0.00,WeatherDisplay:10.37,2013-08-05 11:31:00,
2013-08-05 05:36:00,58.5,50.6,30.11,ENE,68,0.0,0.0,75,0.00,-RA,OVC,0.00,WeatherDisplay:10.37,2013-08-05 11:36:00,
2013-08-05 05:42:00,58.3,50.4,30.11,ENE,68,1.1,1.1,75,0.00,-RA,OVC,0.00,WeatherDisplay:10.37,2013-08-05 11:42:00,
2013-08-05 05:46:00,58.3,50.0,30.11,ENE,68,1.1,0.0,74,0.00,-RA,OVC,0.00,WeatherDisplay:10.37,2013-08-05 11:46:00,
2013-08-05 05:51:00,58.4,49.8,30.11,ENE,68,3.5,3.5,73,0.00,-RA,OVC,0.00,WeatherDisplay:10.37,2013-08-05 11:51:00,
2013-08-05 05:57:00,58.5,49.9,30.11,ENE,68,0.0,0.0,73,0.00,-RA,OVC,0.00,WeatherDisplay:10.37,2013-08-05 11:57:00,
2013-08-05 06:01:00,58.6,50.0,30.11,ENE,68,0.0,0.0,73,0.00,-RA,OVC,0.00,WeatherDisplay:10.37,2013-08-05 12:01:00,
2013-08-05 06:07:00,58.6,49.6,30.11,ENE,68,0.0,0.0,72,0.00,-RA,OVC,0.00,WeatherDisplay:10.37,2013-08-05 12:07:00,
2013-08-05 06:12:00,58.6,50.3,30.09,ENE,68,0.0,0.0,74,0.00,-RA,OVC,0.00,WeatherDisplay:10.37,2013-08-05 12:12:00,
2013-08-05 06:17:00,58.4,50.1,30.09,ENE,68,0.0,0.0,74,0.00,-RA,OVC,0.00,WeatherDisplay:10.37,2013-08-05 12:17:00,
2013-08-05 06:23:00,58.4,50.1,30.09,ENE,68,0.0,0.0,74,0.00,-RA,OVC,0.00,WeatherDisplay:10.37,2013-08-05 12:23:00,
2013-08-05 06:28:00,58.3,50.0,30.09,ENE,68,2.3,0.0,74,0.00,-RA,OVC,0.00,WeatherDisplay:10.37,2013-08-05 12:28:00,
2013-08-05 06:33:00,58.4,49.8,30.09,ENE,68,0.0,0.0,73,0.00,-RA,OVC,0.00,WeatherDisplay:10.37,2013-08-05 12:33:00,
2013-08-05 06:38:00,58.5,49.9,30.09,ENE,68,0.0,0.0,73,0.00,-RA,OVC,0.00,WeatherDisplay:10.37,2013-08-05 12:38:00,
2013-08-05 06:43:00,58.7,50.4,30.09,ENE,68,0.0,0.0,74,0.00,-RA,OVC,0.00,WeatherDisplay:10.37,2013-08-05 12:43:00,
2013-08-05 06:48:00,58.8,50.5,30.09,ENE,68,0.0,0.0,74,0.00,-RA,OVC,0.00,WeatherDisplay:10.37,2013-08-05 12:48:00,
2013-08-05 06:54:00,59.1,51.2,30.09,ENE,68,0.0,0.0,75,0.00,-RA,OVC,0.00,WeatherDisplay:10.37,2013-08-05 12:54:00,
2013-08-05 06:59:00,59.9,52.0,30.09,ENE,68,0.0,0.0,75,0.00,-RA,OVC,0.00,WeatherDisplay:10.37,2013-08-05 12:59:00,
2013-08-05 07:05:00,60.8,53.2,30.09,ENE,68,0.0,0.0,76,0.00,-RA,OVC,0.00,WeatherDisplay:10.37,2013-08-05 13:05:00,
2013-08-05 07:10:00,61.6,53.2,30.10,ENE,68,0.0,0.0,74,0.00,-RA,OVC,0.00,WeatherDisplay:10.37,2013-08-05 13:10:00,
2013-08-05 07:15:00,62.3,53.5,30.10,ENE,68,0.0,0.0,73,0.00,-RA,OVC,0.00,WeatherDisplay:10.37,2013-08-05 13:15:00,
2013-08-05 07:21:00,63.1,54.7,30.10,ENE,68,0.0,0.0,74,0.00,-RA,OVC,0.00,WeatherDisplay:10.37,2013-08-05 13:21:00,
2013-08-05 07:26:00,63.7,54.1,30.11,ENE,68,0.0,0.0,71,0.00,-RA,OVC,0.00,WeatherDisplay:10.37,2013-08-05 13:26:00,
2013-08-05 07:31:00,64.4,54.8,30.11,ENE,68,0.0,0.0,71,0.00,-RA,OVC,0.00,WeatherDisplay:10.37,2013-08-05 13:31:00,
2013-08-05 07:36:00,65.0,54.6,30.11,ENE,68,0.0,0.0,69,0.00,-RA,OVC,0.00,WeatherDisplay:10.37,2013-08-05 13:36:00,
2013-08-05 07:42:00,65.9,55.0,30.11,ENE,68,0.0,0.0,68,0.00,-RA,OVC,0.00,WeatherDisplay:10.37,2013-08-05 13:42:00,
2013-08-05 07:47:00,66.5,55.6,30.11,ENE,68,0.0,0.0,68,0.00,-RA,OVC,0.00,WeatherDisplay:10.37,2013-08-05 13:47:00,
2013-08-05 07:52:00,67.3,56.8,30.11,ENE,68,0.0,0.0,69,0.00,-RA,OVC,0.00,WeatherDisplay:10.37,2013-08-05 13:52:00,
2013-08-05 07:58:00,67.9,54.8,30.11,ENE,68,3.0,3.0,63,0.00,-RA,OVC,0.00,WeatherDisplay:10.37,2013-08-05 13:58:00,
2013-08-05 08:03:00,68.6,54.2,30.11,ENE,68,0.0,0.0,60,0.00,-RA,OVC,0.00,WeatherDisplay:10.37,2013-08-05 14:03:00,
2013-08-05 08:08:00,69.4,53.0,30.11,ENE,68,0.0,0.0,56,0.00,-RA,OVC,0.00,WeatherDisplay:10.37,2013-08-05 14:08:00,
2013-08-05 08:13:00,70.5,52.5,30.11,ENE,68,0.0,0.0,53,0.00,-RA,OVC,0.00,WeatherDisplay:10.37,2013-08-05 14:13:00,
2013-08-05 08:18:00,71.3,53.8,30.11,ENE,68,1.1,0.0,54,0.00,-RA,OVC,0.00,WeatherDisplay:10.37,2013-08-05 14:18:00,
2013-08-05 08:23:00,72.1,54.0,30.11,ENE,68,0.0,0.0,53,0.00,-RA,OVC,0.00,WeatherDisplay:10.37,2013-08-05 14:23:00,
2013-08-05 08:29:00,72.6,54.5,30.11,ENE,68,0.0,0.0,53,0.00,-RA,OVC,0.00,WeatherDisplay:10.37,2013-08-05 14:29:00,
2013-08-05 08:34:00,73.6,54.4,30.12,ENE,68,2.3,2.3,51,0.00,-RA,OVC,0.00,WeatherDisplay:10.37,2013-08-05 14:34:00,
2013-08-05 08:39:00,74.1,55.9,30.12,ENE,68,0.0,0.0,53,0.00,-RA,OVC,0.00,WeatherDisplay:10.37,2013-08-05 14:39:00,
2013-08-05 08:45:00,74.8,54.4,30.12,ENE,68,1.1,0.0,49,0.00,-RA,OVC,0.00,WeatherDisplay:10.37,2013-08-05 14:45:00,
2013-08-05 08:51:00,75.5,53.3,30.12,ENE,68,3.5,3.5,46,0.00,-RA,OVC,0.00,WeatherDisplay:10.37,2013-08-05 14:51:00,
2013-08-05 08:57:00,76.2,53.9,30.12,ENE,68,0.0,0.0,46,0.00,-RA,OVC,0.00,WeatherDisplay:10.37,2013-08-05 14:57:00,
2013-08-05 09:02:00,76.9,55.1,30.12,ENE,68,0.0,0.0,47,0.00,-RA,OVC,0.00,WeatherDisplay:10.37,2013-08-05 15:02:00,
2013-08-05 09:07:00,77.4,53.8,30.12,ENE,68,0.0,0.0,44,0.00,-RA,OVC,0.00,WeatherDisplay:10.37,2013-08-05 15:07:00,
2013-08-05 09:12:00,77.8,55.4,30.12,ENE,68,0.0,0.0,46,0.00,-RA,OVC,0.00,WeatherDisplay:10.37,2013-08-05 15:12:00,
2013-08-05 09:17:00,78.3,53.3,30.12,ENE,68,0.0,0.0,42,0.00,-RA,OVC,0.00,WeatherDisplay:10.37,2013-08-05 15:17:00,
2013-08-05 09:23:00,78.8,56.3,30.12,ENE,68,0.0,0.0,46,0.00,-RA,OVC,0.00,WeatherDisplay:10.37,2013-08-05 15:23:00,
2013-08-05 09:28:00,79.4,53.6,30.12,ENE,68,2.3,0.0,41,0.00,-RA,OVC,0.00,WeatherDisplay:10.37,2013-08-05 15:28:00,
2013-08-05 09:33:00,79.6,53.1,30.12,ENE,68,1.0,0.0,40,0.00,-RA,OVC,0.00,WeatherDisplay:10.37,2013-08-05 15:33:00,
2013-08-05 09:39:00,80.3,51.7,30.12,ENE,68,3.5,3.5,37,0.00,-RA,OVC,0.00,WeatherDisplay:10.37,2013-08-05 15:39:00,
2013-08-05 09:44:00,80.8,51.4,30.12,ENE,68,1.1,1.1,36,0.00,-RA,OVC,0.00,WeatherDisplay:10.37,2013-08-05 15:44:00,
2013-08-05 09:48:00,81.0,52.3,30.12,ENE,68,0.0,0.0,37,0.00,-RA,OVC,0.00,WeatherDisplay:10.37,2013-08-05 15:48:00,
2013-08-05 09:54:00,81.8,53.7,30.12,ENE,68,0.0,0.0,38,0.00,-RA,OVC,0.00,WeatherDisplay:10.37,2013-08-05 15:54:00,
2013-08-05 09:59:00,82.7,55.2,30.12,ENE,68,2.3,2.3,39,0.00,-RA,OVC,0.00,WeatherDisplay:10.37,2013-08-05 15:59:00,
2013-08-05 10:04:00,83.5,51.4,30.12,ENE,68,2.0,2.0,33,0.00,-RA,OVC,0.00,WeatherDisplay:10.37,2013-08-05 16:04:00,
2013-08-05 10:09:00,83.8,51.6,30.12,ENE,68,1.1,1.1,33,0.00,-RA,OVC,0.00,WeatherDisplay:10.37,2013-08-05 16:09:00,
2013-08-05 10:15:00,84.3,52.9,30.12,ENE,68,2.3,2.3,34,0.00,-RA,OVC,0.00,WeatherDisplay:10.37,2013-08-05 16:15:00,
2013-08-05 10:20:00,84.6,52.3,30.12,East,96,3.5,3.5,33,0.00,-RA,OVC,0.00,WeatherDisplay:10.37,2013-08-05 16:20:00,
2013-08-05 10:26:00,84.0,51.8,30.12,SSE,150,3.5,3.5,33,0.00,-RA,OVC,0.00,WeatherDisplay:10.37,2013-08-05 16:26:00,
2013-08-05 10:31:00,83.3,51.2,30.12,South,177,3.5,3.5,33,0.00,-RA,OVC,0.00,WeatherDisplay:10.37,2013-08-05 16:31:00,
2013-08-05 10:37:00,83.4,51.3,30.12,South,183,3.5,3.5,33,0.00,-RA,OVC,0.00,WeatherDisplay:10.37,2013-08-05 16:37:00,
2013-08-05 10:42:00,83.5,49.7,30.12,South,188,0.0,2.5,31,0.00,-RA,OVC,0.00,WeatherDisplay:10.37,2013-08-05 16:42:00,
2013-08-05 10:47:00,83.5,53.0,30.12,South,188,2.3,2.3,35,0.00,-RA,OVC,0.00,WeatherDisplay:10.37,2013-08-05 16:47:00,
2013-08-05 10:53:00,83.9,54.1,30.12,West,267,3.5,3.5,36,0.00,-RA,OVC,0.00,WeatherDisplay:10.37,2013-08-05 16:53:00,
2013-08-05 10:57:00,84.5,56.1,30.12,West,259,2.3,2.3,38,0.00,-RA,OVC,0.00,WeatherDisplay:10.37,2013-08-05 16:57:00,
2013-08-05 11:03:00,84.8,53.3,30.12,West,274,2.3,2.3,34,0.00,-RA,OVC,0.00,WeatherDisplay:10.37,2013-08-05 17:03:00,
2013-08-05 11:08:00,85.3,52.9,30.12,West,260,5.0,5.0,33,0.00,-RA,OVC,0.00,WeatherDisplay:10.37,2013-08-05 17:08:00,
2013-08-05 11:13:00,85.2,54.5,30.12,South,186,4.6,4.6,35,0.00,-RA,OVC,0.00,WeatherDisplay:10.37,2013-08-05 17:13:00,
2013-08-05 11:18:00,84.9,54.2,30.12,WSW,250,4.6,4.6,35,0.00,-RA,OVC,0.00,WeatherDisplay:10.37,2013-08-05 17:18:00,
2013-08-05 11:23:00,84.9,55.0,30.12,West,263,3.5,3.5,36,0.00,-RA,OVC,0.00,WeatherDisplay:10.37,2013-08-05 17:23:00,
2013-08-05 11:29:00,84.8,53.3,30.12,WNW,286,3.5,3.5,34,0.00,-RA,OVC,0.00,WeatherDisplay:10.37,2013-08-05 17:29:00,
2013-08-05 11:35:00,84.7,52.4,30.12,West,261,3.5,3.5,33,0.00,-RA,OVC,0.00,WeatherDisplay:10.37,2013-08-05 17:35:00,
2013-08-05 11:39:00,84.8,50.8,30.12,West,267,4.6,4.6,31,0.00,-RA,OVC,0.00,WeatherDisplay:10.37,2013-08-05 17:39:00,
2013-08-05 11:45:00,85.1,52.8,30.12,West,268,3.5,3.5,33,0.00,-RA,OVC,0.00,WeatherDisplay:10.37,2013-08-05 17:45:00,
2013-08-05 11:50:00,85.1,50.2,30.12,West,279,3.5,3.5,30,0.00,-RA,OVC,0.00,WeatherDisplay:10.37,2013-08-05 17:50:00,
2013-08-05 11:55:00,85.3,51.2,30.14,West,268,3.5,3.5,31,0.00,-RA,OVC,0.00,WeatherDisplay:10.37,2013-08-05 17:55:00,
2013-08-05 12:00:00,85.6,49.7,30.14,WSW,248,3.5,3.5,29,0.00,-RA,OVC,0.00,WeatherDisplay:10.37,2013-08-05 18:00:00,
2013-08-05 12:05:00,85.9,50.0,30.14,WSW,249,2.3,2.3,29,0.00,-RA,OVC,0.00,WeatherDisplay:10.37,2013-08-05 18:05:00,
2013-08-05 12:10:00,86.2,52.0,30.14,WSW,240,1.1,1.1,31,0.00,-RA,OVC,0.00,WeatherDisplay:10.37,2013-08-05 18:10:00,
2013-08-05 12:15:00,86.0,52.7,30.14,SSW,213,3.5,3.5,32,0.00,-RA,OVC,0.00,WeatherDisplay:10.37,2013-08-05 18:15:00,
2013-08-05 12:20:00,86.2,51.1,30.14,SW,219,2.3,2.3,30,0.00,-RA,OVC,0.00,WeatherDisplay:10.37,2013-08-05 18:20:00,
2013-08-05 12:25:00,86.6,49.6,30.14,West,267,4.6,4.6,28,0.00,-RA,OVC,0.00,WeatherDisplay:10.37,2013-08-05 18:25:00,
2013-08-05 12:31:00,86.8,48.8,30.14,West,261,5.8,5.8,27,0.00,-RA,OVC,0.00,WeatherDisplay:10.37,2013-08-05 18:31:00,
2013-08-05 12:37:00,86.7,50.6,30.14,South,180,4.6,4.6,29,0.00,-RA,OVC,0.00,WeatherDisplay:10.37,2013-08-05 18:37:00,
2013-08-05 12:42:00,86.0,49.1,30.14,South,188,3.5,3.5,28,0.00,-RA,OVC,0.00,WeatherDisplay:10.37,2013-08-05 18:42:00,
2013-08-05 12:47:00,86.1,51.9,30.14,SSW,203,4.0,4.0,31,0.00,-RA,OVC,0.00,WeatherDisplay:10.37,2013-08-05 18:47:00,
2013-08-05 12:53:00,85.8,49.9,30.14,SW,236,3.5,3.5,29,0.00,-RA,OVC,0.00,WeatherDisplay:10.37,2013-08-05 18:53:00,
2013-08-05 12:58:00,85.6,50.6,30.14,NNE,13,2.3,2.3,30,0.00,-RA,OVC,0.00,WeatherDisplay:10.37,2013-08-05 18:58:00,
2013-08-05 13:04:00,85.6,49.7,30.14,ESE,121,3.5,3.5,29,0.00,-RA,OVC,0.00,WeatherDisplay:10.37,2013-08-05 19:04:00,
2013-08-05 13:09:00,85.6,51.5,30.14,South,173,3.5,3.5,31,0.00,-RA,OVC,0.00,WeatherDisplay:10.37,2013-08-05 19:09:00,
2013-08-05 13:14:00,85.7,49.8,30.14,South,186,5.8,5.8,29,0.00,-RA,OVC,0.00,WeatherDisplay:10.37,2013-08-05 19:14:00,
2013-08-05 13:19:00,86.3,50.3,30.14,WSW,239,2.3,2.3,29,0.00,-RA,OVC,0.00,WeatherDisplay:10.37,2013-08-05 19:19:00,
2013-08-05 13:24:00,86.9,51.7,30.12,SW,225,1.1,1.1,30,0.00,-RA,OVC,0.00,WeatherDisplay:10.37,2013-08-05 19:24:00,
2013-08-05 13:30:00,87.4,51.2,30.12,NNE,17,4.6,4.6,29,0.00,-RA,OVC,0.00,WeatherDisplay:10.37,2013-08-05 19:30:00,
2013-08-05 13:35:00,87.2,51.1,30.12,NW,324,1.1,0.0,29,0.00,-RA,OVC,0.00,WeatherDisplay:10.37,2013-08-05 19:35:00,
2013-08-05 13:40:00,86.9,51.7,30.12,NNW,333,3.5,3.5,30,0.00,-RA,OVC,0.00,WeatherDisplay:10.37,2013-08-05 19:40:00,
2013-08-05 13:45:00,86.5,51.4,30.12,NW,326,1.1,0.0,30,0.00,-RA,OVC,0.00,WeatherDisplay:10.37,2013-08-05 19:45:00,
2013-08-05 13:50:00,86.1,51.0,30.12,NW,318,3.5,3.5,30,0.00,-RA,OVC,0.00,WeatherDisplay:10.37,2013-08-05 19:50:00,
2013-08-05 13:55:00,85.9,51.8,30.12,NW,313,2.3,0.0,31,0.00,-RA,OVC,0.00,WeatherDisplay:10.37,2013-08-05 19:55:00,
2013-08-05 14:01:00,85.5,50.5,30.12,WNW,293,0.0,0.1,30,0.00,-RA,OVC,0.00,WeatherDisplay:10.37,2013-08-05 20:01:00,
2013-08-05 14:06:00,85.2,51.1,30.12,WNW,295,2.3,2.3,31,0.00,-RA,OVC,0.00,WeatherDisplay:10.37,2013-08-05 20:06:00,
2013-08-05 14:12:00,84.7,52.4,30.12,WNW,287,2.3,2.3,33,0.00,-RA,OVC,0.00,WeatherDisplay:10.37,2013-08-05 20:12:00,
2013-08-05 14:17:00,84.8,54.1,30.12,West,281,1.1,1.1,35,0.00,-RA,OVC,0.00,WeatherDisplay:10.37,2013-08-05 20:17:00,
2013-08-05 14:22:00,84.8,53.3,30.12,West,277,2.0,2.0,34,0.00,-RA,OVC,0.00,WeatherDisplay:10.37,2013-08-05 20:22:00,
2013-08-05 14:28:00,84.6,53.9,30.12,West,273,1.1,0.0,35,0.00,-RA,OVC,0.00,WeatherDisplay:10.37,2013-08-05 20:28:00,
2013-08-05 14:33:00,84.5,56.1,30.12,West,271,1.1,1.1,38,0.00,-RA,OVC,0.00,WeatherDisplay:10.37,2013-08-05 20:33:00,
2013-08-05 14:38:00,84.1,55.0,30.12,West,265,0.0,0.0,37,0.00,-RA,OVC,0.00,WeatherDisplay:10.37,2013-08-05 20:38:00,
2013-08-05 14:43:00,84.1,55.0,30.12,West,265,0.0,0.0,37,0.00,-RA,OVC,0.00,WeatherDisplay:10.37,2013-08-05 20:43:00,
2013-08-05 14:48:00,84.4,55.3,30.12,West,265,1.1,1.1,37,0.00,-RA,OVC,0.00,WeatherDisplay:10.37,2013-08-05 20:48:00,
2013-08-05 14:54:00,84.6,53.9,30.12,West,265,0.0,0.5,35,0.00,-RA,OVC,0.00,WeatherDisplay:10.37,2013-08-05 20:54:00,
2013-08-05 14:59:00,84.5,56.8,30.12,West,265,0.0,0.1,39,0.00,-RA,OVC,0.00,WeatherDisplay:10.37,2013-08-05 20:59:00,
2013-08-05 15:04:00,84.1,53.5,30.12,WSW,252,3.5,3.5,35,0.00,-RA,OVC,0.00,WeatherDisplay:10.37,2013-08-05 21:04:00,
2013-08-05 15:09:00,83.4,52.9,30.12,WSW,252,3.5,3.5,35,0.00,-RA,OVC,0.00,WeatherDisplay:10.37,2013-08-05 21:09:00,
2013-08-05 15:14:00,83.0,55.5,30.12,WSW,244,1.1,0.0,39,0.00,-RA,OVC,0.00,WeatherDisplay:10.37,2013-08-05 21:14:00,
2013-08-05 15:19:00,82.6,55.1,30.12,WSW,244,1.1,0.0,39,0.00,-RA,OVC,0.00,WeatherDisplay:10.37,2013-08-05 21:19:00,
2013-08-05 15:25:00,82.3,54.2,30.12,WSW,239,1.1,1.1,38,0.00,-RA,OVC,0.00,WeatherDisplay:10.37,2013-08-05 21:25:00,
2013-08-05 15:30:00,82.1,54.0,30.12,WSW,239,0.0,0.0,38,0.00,-RA,OVC,0.00,WeatherDisplay:10.37,2013-08-05 21:30:00,
2013-08-05 15:36:00,82.2,53.3,30.12,WSW,239,0.0,0.0,37,0.00,-RA,OVC,0.00,WeatherDisplay:10.37,2013-08-05 21:36:00,
2013-08-05 15:42:00,82.2,53.3,30.12,WSW,239,1.1,0.0,37,0.00,-RA,OVC,0.00,WeatherDisplay:10.37,2013-08-05 21:42:00,
2013-08-05 15:47:00,82.2,53.3,30.12,WSW,239,3.5,3.5,37,0.00,-RA,OVC,0.00,WeatherDisplay:10.37,2013-08-05 21:47:00,
2013-08-05 15:52:00,82.0,53.9,30.12,WSW,238,1.1,0.0,38,0.00,-RA,OVC,0.00,WeatherDisplay:10.37,2013-08-05 21:52:00,
2013-08-05 15:57:00,81.9,54.5,30.12,SW,232,2.3,2.3,39,0.00,-RA,OVC,0.00,WeatherDisplay:10.37,2013-08-05 21:57:00,
2013-08-05 16:02:00,81.7,52.9,30.10,ESE,121,3.5,3.5,37,0.00,-RA,OVC,0.00,WeatherDisplay:10.37,2013-08-05 22:02:00,
2013-08-05 16:07:00,81.6,52.8,30.10,ESE,120,6.9,6.9,37,0.00,-RA,OVC,0.00,WeatherDisplay:10.37,2013-08-05 22:07:00,
2013-08-05 16:12:00,81.5,53.4,30.10,SE,126,3.5,3.5,38,0.00,-RA,OVC,0.00,WeatherDisplay:10.37,2013-08-05 22:12:00,
2013-08-05 16:18:00,81.0,50.8,30.10,ESE,116,13.8,13.8,35,0.00,-RA,OVC,0.00,WeatherDisplay:10.37,2013-08-05 22:18:00,
2013-08-05 16:23:00,80.3,50.1,30.11,ESE,107,15.0,15.0,35,0.00,-RA,OVC,0.00,WeatherDisplay:10.37,2013-08-05 22:23:00,
2013-08-05 16:28:00,79.8,51.2,30.11,ESE,109,9.0,9.0,37,0.00,-RA,OVC,0.00,WeatherDisplay:10.37,2013-08-05 22:28:00,
2013-08-05 16:34:00,79.6,51.8,30.11,ESE,102,5.8,5.8,38,0.00,-RA,OVC,0.00,WeatherDisplay:10.37,2013-08-05 22:34:00,
2013-08-05 16:39:00,79.6,51.0,30.11,East,94,11.5,11.5,37,0.00,-RA,OVC,0.00,WeatherDisplay:10.37,2013-08-05 22:39:00,
2013-08-05 16:44:00,79.4,51.6,30.11,SE,127,3.5,3.5,38,0.00,-RA,OVC,0.00,WeatherDisplay:10.37,2013-08-05 22:44:00,
2013-08-05 16:49:00,79.3,52.2,30.11,ESE,123,3.5,3.5,39,0.00,-RA,OVC,0.00,WeatherDisplay:10.37,2013-08-05 22:49:00,
2013-08-05 16:56:00,79.3,51.5,30.11,ESE,116,4.6,4.6,38,0.00,-RA,OVC,0.00,WeatherDisplay:10.37,2013-08-05 22:56:00,
2013-08-05 17:01:00,79.1,51.3,30.11,SE,127,4.6,4.6,38,0.00,-RA,OVC,0.00,WeatherDisplay:10.37,2013-08-05 23:01:00,
2013-08-05 17:07:00,78.8,51.7,30.11,SE,128,2.3,2.3,39,0.00,-RA,OVC,0.00,WeatherDisplay:10.37,2013-08-05 23:07:00,
2013-08-05 17:12:00,78.5,50.8,30.11,SE,136,5.8,5.8,38,0.00,-RA,OVC,0.00,WeatherDisplay:10.37,2013-08-05 23:12:00,
2013-08-05 17:17:00,78.3,50.6,30.11,SE,128,4.6,4.6,38,0.00,-RA,OVC,0.00,WeatherDisplay:10.37,2013-08-05 23:17:00,
2013-08-05 17:22:00,78.2,51.2,30.11,SE,136,3.5,3.5,39,0.00,-RA,OVC,0.00,WeatherDisplay:10.37,2013-08-05 23:22:00,
2013-08-05 17:27:00,78.1,51.1,30.11,SSE,147,3.5,3.5,39,0.00,-RA,OVC,0.00,WeatherDisplay:10.37,2013-08-05 23:27:00,
2013-08-05 17:33:00,77.9,51.6,30.11,SE,146,3.5,3.5,40,0.00,-RA,OVC,0.00,WeatherDisplay:10.37,2013-08-05 23:33:00,
2013-08-05 17:38:00,77.7,51.5,30.11,ESE,119,5.8,5.8,40,0.00,-RA,OVC,0.00,WeatherDisplay:10.37,2013-08-05 23:38:00,
2013-08-05 17:44:00,77.5,50.6,30.11,ESE,119,4.6,4.6,39,0.00,-RA,OVC,0.00,WeatherDisplay:10.37,2013-08-05 23:44:00,
2013-08-05 17:49:00,77.3,51.1,30.11,SE,137,3.5,3.5,40,0.00,-RA,OVC,0.00,WeatherDisplay:10.37,2013-08-05 23:49:00,
2013-08-05 17:54:00,77.1,50.9,30.11,ESE,118,4.6,4.6,40,0.00,-RA,OVC,0.00,WeatherDisplay:10.37,2013-08-05 23:54:00,
2013-08-05 18:00:00,77.1,50.9,30.11,East,98,3.5,3.5,40,0.00,-RA,OVC,0.00,WeatherDisplay:10.37,2013-08-06 00:00:00,
2013-08-05 18:05:00,77.1,50.9,30.11,SSE,167,3.5,3.5,40,0.00,-RA,OVC,0.00,WeatherDisplay:10.37,2013-08-06 00:05:00,
2013-08-05 18:10:00,77.0,50.8,30.11,SSW,194,3.5,3.5,40,0.00,-RA,OVC,0.00,WeatherDisplay:10.37,2013-08-06 00:10:00,
2013-08-05 18:15:00,76.9,51.4,30.11,South,187,2.3,2.3,41,0.00,-RA,OVC,0.00,WeatherDisplay:10.37,2013-08-06 00:15:00,
2013-08-05 18:20:00,76.8,51.3,30.11,South,190,1.1,1.5,41,0.00,-RA,OVC,0.00,WeatherDisplay:10.37,2013-08-06 00:20:00,
2013-08-05 18:25:00,76.7,51.9,30.09,SSW,194,0.0,0.0,42,0.00,-RA,OVC,0.00,WeatherDisplay:10.37,2013-08-06 00:25:00,
2013-08-05 18:30:00,76.7,51.2,30.09,SSW,194,0.0,0.0,41,0.00,-RA,OVC,0.00,WeatherDisplay:10.37,2013-08-06 00:30:00,
2013-08-05 18:36:00,76.7,52.5,30.09,SSW,194,1.1,1.1,43,0.00,-RA,OVC,0.00,WeatherDisplay:10.37,2013-08-06 00:36:00,
2013-08-05 18:41:00,76.7,51.9,30.09,SSW,194,0.0,0.0,42,0.00,-RA,OVC,0.00,WeatherDisplay:10.37,2013-08-06 00:41:00,
2013-08-05 18:47:00,77.0,52.8,30.09,SSW,195,2.3,2.3,43,0.00,-RA,OVC,0.00,WeatherDisplay:10.37,2013-08-06 00:47:00,
2013-08-05 18:52:00,77.1,52.9,30.09,SSW,196,1.1,1.1,43,0.00,-RA,OVC,0.00,WeatherDisplay:10.37,2013-08-06 00:52:00,
2013-08-05 18:57:00,77.1,52.9,30.09,SSW,197,1.1,1.1,43,0.00,-RA,OVC,0.00,WeatherDisplay:10.37,2013-08-06 00:57:00,
2013-08-05 19:02:00,76.8,53.8,30.09,SSW,205,2.3,2.3,45,0.00,-RA,OVC,0.00,WeatherDisplay:10.37,2013-08-06 01:02:00,
2013-08-05 19:07:00,76.3,54.0,30.09,West,265,3.0,3.0,46,0.00,-RA,OVC,0.00,WeatherDisplay:10.37,2013-08-06 01:07:00,
2013-08-05 19:12:00,75.5,53.9,30.09,WSW,241,6.9,6.9,47,0.00,-RA,OVC,0.00,WeatherDisplay:10.37,2013-08-06 01:12:00,
2013-08-05 19:18:00,74.6,53.0,30.09,WSW,246,3.5,3.5,47,0.00,-RA,OVC,0.00,WeatherDisplay:10.37,2013-08-06 01:18:00,
2013-08-05 19:23:00,74.0,52.5,30.09,WSW,252,3.5,3.5,47,0.00,-RA,OVC,0.00,WeatherDisplay:10.37,2013-08-06 01:23:00,
2013-08-05 19:28:00,73.6,52.7,30.09,WSW,254,3.5,3.5,48,0.00,-RA,OVC,0.00,WeatherDisplay:10.37,2013-08-06 01:28:00,
2013-08-05 19:34:00,73.2,52.9,30.09,SW,228,3.5,3.5,49,0.00,-RA,OVC,0.00,WeatherDisplay:10.37,2013-08-06 01:34:00,
2013-08-05 19:39:00,73.0,53.8,30.09,SW,228,0.0,0.0,51,0.00,-RA,OVC,0.00,WeatherDisplay:10.37,2013-08-06 01:39:00,
2013-08-05 19:44:00,72.7,53.5,30.09,SW,228,2.0,2.0,51,0.00,-RA,OVC,0.00,WeatherDisplay:10.37,2013-08-06 01:44:00,
2013-08-05 19:50:00,72.5,53.9,30.09,SW,228,1.1,1.1,52,0.00,-RA,OVC,0.00,WeatherDisplay:10.37,2013-08-06 01:50:00,
2013-08-05 19:55:00,72.3,54.2,30.09,SW,229,3.5,3.5,53,0.00,-RA,OVC,0.00,WeatherDisplay:10.37,2013-08-06 01:55:00,
2013-08-05 20:00:00,72.2,55.1,30.09,SW,230,1.1,1.1,55,0.00,-RA,OVC,0.00,WeatherDisplay:10.37,2013-08-06 02:00:00,
2013-08-05 20:05:00,72.1,56.5,30.13,SW,230,0.0,0.0,58,0.00,-RA,OVC,0.00,WeatherDisplay:10.37,2013-08-06 02:05:00,
2013-08-05 20:10:00,71.7,57.5,30.13,SW,230,0.0,0.0,61,0.00,-RA,OVC,0.01,WeatherDisplay:10.37,2013-08-06 02:10:00,
2013-08-05 20:15:00,71.0,59.5,30.14,SW,230,0.0,0.0,67,0.01,-RA,OVC,0.01,WeatherDisplay:10.37,2013-08-06 02:15:00,
2013-08-05 20:21:00,70.1,60.7,30.14,SW,230,0.0,0.0,72,0.01,-RA,OVC,0.01,WeatherDisplay:10.37,2013-08-06 02:21:00,
2013-08-05 20:26:00,69.2,60.6,30.14,SW,230,0.0,0.0,74,0.01,-RA,OVC,0.01,WeatherDisplay:10.37,2013-08-06 02:26:00,
2013-08-05 20:31:00,68.4,60.5,30.14,SW,229,0.0,0.0,76,0.01,-RA,OVC,0.01,WeatherDisplay:10.37,2013-08-06 02:31:00,
2013-08-05 20:36:00,68.0,60.5,30.14,SW,229,0.0,0.0,77,0.01,-RA,OVC,0.01,WeatherDisplay:10.37,2013-08-06 02:36:00,
2013-08-05 20:41:00,67.7,61.0,30.14,SW,229,0.0,0.0,79,0.01,-RA,OVC,0.01,WeatherDisplay:10.37,2013-08-06 02:41:00,
2013-08-05 20:47:00,67.4,60.7,30.14,SW,229,0.0,0.0,79,0.01,-RA,OVC,0.01,WeatherDisplay:10.37,2013-08-06 02:47:00,
2013-08-05 20:52:00,67.1,60.7,30.14,SW,229,0.0,0.0,80,0.01,-RA,OVC,0.01,WeatherDisplay:10.37,2013-08-06 02:52:00,
2013-08-05 20:57:00,66.9,60.2,30.14,SW,229,0.0,0.0,79,0.01,-RA,OVC,0.01,WeatherDisplay:10.37,2013-08-06 02:57:00,
2013-08-05 21:02:00,66.7,60.0,30.14,SW,229,0.0,0.0,79,0.01,-RA,OVC,0.01,WeatherDisplay:10.37,2013-08-06 03:02:00,
2013-08-05 21:07:00,66.4,60.4,30.14,SW,229,0.0,0.0,81,0.01,-RA,OVC,0.01,WeatherDisplay:10.37,2013-08-06 03:07:00,
2013-08-05 21:12:00,66.1,60.4,30.14,SW,229,0.0,0.0,82,0.00,-RA,OVC,0.01,WeatherDisplay:10.37,2013-08-06 03:12:00,
2013-08-05 21:17:00,65.9,60.2,30.14,SW,229,0.0,0.0,82,0.00,-RA,OVC,0.01,WeatherDisplay:10.37,2013-08-06 03:17:00,
2013-08-05 21:22:00,65.7,60.4,30.14,SW,229,0.0,0.0,83,0.00,-RA,OVC,0.01,WeatherDisplay:10.37,2013-08-06 03:22:00,
2013-08-05 21:27:00,65.5,59.9,30.14,SW,229,0.0,0.0,82,0.00,-RA,OVC,0.01,WeatherDisplay:10.37,2013-08-06 03:27:00,
2013-08-05 21:32:00,65.3,59.7,30.14,SW,229,0.0,0.0,82,0.00,-RA,OVC,0.01,WeatherDisplay:10.37,2013-08-06 03:32:00,
2013-08-05 21:38:00,65.2,59.2,30.14,SW,229,0.0,0.0,81,0.00,-RA,OVC,0.01,WeatherDisplay:10.37,2013-08-06 03:38:00,
2013-08-05 21:43:00,65.2,58.2,30.14,SW,229,0.0,0.0,78,0.00,-RA,OVC,0.01,WeatherDisplay:10.37,2013-08-06 03:43:00,
2013-08-05 21:48:00,65.2,57.4,30.14,SW,229,0.0,0.0,76,0.00,-RA,OVC,0.01,WeatherDisplay:10.37,2013-08-06 03:48:00,
2013-08-05 21:53:00,65.2,57.1,30.14,SW,229,0.0,0.0,75,0.00,-RA,OVC,0.01,WeatherDisplay:10.37,2013-08-06 03:53:00,
2013-08-05 21:58:00,65.2,56.3,30.14,SW,229,0.0,0.0,73,0.00,-RA,OVC,0.01,WeatherDisplay:10.37,2013-08-06 03:58:00,
2013-08-05 22:01:00,65.3,56.4,30.14,SW,229,0.0,0.0,73,0.00,-RA,OVC,0.01,WeatherDisplay:10.37,2013-08-06 04:01:00,
2013-08-05 22:06:00,65.4,55.7,30.13,SW,229,0.0,0.0,71,0.00,-RA,OVC,0.01,WeatherDisplay:10.37,2013-08-06 04:06:00,
2013-08-05 22:11:00,65.4,55.7,30.13,SW,229,0.0,0.0,71,0.00,-RA,OVC,0.01,WeatherDisplay:10.37,2013-08-06 04:11:00,
2013-08-05 22:16:00,65.4,56.5,30.13,SW,229,0.0,0.0,73,0.00,-RA,OVC,0.01,WeatherDisplay:10.37,2013-08-06 04:16:00,
2013-08-05 22:21:00,65.2,56.7,30.13,SW,229,0.0,0.0,74,0.00,-RA,OVC,0.01,WeatherDisplay:10.37,2013-08-06 04:21:00,
2013-08-05 22:26:00,64.9,56.4,30.13,SW,229,0.0,0.0,74,0.00,-RA,OVC,0.01,WeatherDisplay:10.37,2013-08-06 04:26:00,
2013-08-05 22:31:00,64.5,56.0,30.13,SW,229,0.0,0.0,74,0.00,-RA,OVC,0.01,WeatherDisplay:10.37,2013-08-06 04:31:00,
2013-08-05 22:36:00,64.2,55.7,30.13,SW,229,0.0,0.0,74,0.00,-RA,OVC,0.01,WeatherDisplay:10.37,2013-08-06 04:36:00,
2013-08-05 22:41:00,64.0,55.5,30.13,SW,229,0.0,0.0,74,0.00,-RA,OVC,0.01,WeatherDisplay:10.37,2013-08-06 04:41:00,
2013-08-05 22:46:00,63.8,55.4,30.13,SW,229,0.0,0.0,74,0.00,-RA,OVC,0.01,WeatherDisplay:10.37,2013-08-06 04:46:00,
2013-08-05 22:51:00,63.7,55.6,30.13,SW,229,0.0,0.0,75,0.00,-RA,OVC,0.01,WeatherDisplay:10.37,2013-08-06 04:51:00,
2013-08-05 22:56:00,63.5,55.1,30.13,SW,229,0.0,0.0,74,0.00,-RA,OVC,0.01,WeatherDisplay:10.37,2013-08-06 04:56:00,
2013-08-05 23:01:00,63.4,55.0,30.13,SW,229,0.0,0.0,74,0.00,-RA,OVC,0.01,WeatherDisplay:10.37,2013-08-06 05:01:00,
2013-08-05 23:06:00,63.4,55.3,30.11,SW,229,0.0,0.0,75,0.00,-RA,OVC,0.01,WeatherDisplay:10.37,2013-08-06 05:06:00,
2013-08-05 23:11:00,63.4,55.0,30.11,SW,229,0.0,0.0,74,0.00,-RA,OVC,0.01,WeatherDisplay:10.37,2013-08-06 05:11:00,
2013-08-05 23:16:00,63.4,55.3,30.11,SW,229,0.0,0.0,75,0.00,-RA,OVC,0.01,WeatherDisplay:10.37,2013-08-06 05:16:00,
2013-08-05 23:21:00,63.6,54.4,30.11,SW,229,2.3,2.3,72,0.00,-RA,OVC,0.01,WeatherDisplay:10.37,2013-08-06 05:21:00,
2013-08-05 23:26:00,63.9,54.3,30.11,SW,230,1.1,0.0,71,0.00,-RA,OVC,0.01,WeatherDisplay:10.37,2013-08-06 05:26:00,
2013-08-05 23:31:00,64.3,53.9,30.11,SW,235,2.3,2.3,69,0.00,-RA,OVC,0.01,WeatherDisplay:10.37,2013-08-06 05:31:00,
2013-08-05 23:36:00,65.0,53.8,30.11,NNW,341,3.5,3.5,67,0.00,-RA,OVC,0.01,WeatherDisplay:10.37,2013-08-06 05:36:00,
2013-08-05 23:41:00,65.7,53.6,30.11,NE,55,5.0,5.0,65,0.00,-RA,OVC,0.01,WeatherDisplay:10.37,2013-08-06 05:41:00,
2013-08-05 23:46:00,66.1,53.6,30.10,ENE,61,3.5,3.5,64,0.00,-RA,OVC,0.01,WeatherDisplay:10.37,2013-08-06 05:46:00,
2013-08-05 23:51:00,66.5,53.5,30.10,NE,40,5.8,5.8,63,0.00,-RA,OVC,0.01,WeatherDisplay:10.37,2013-08-06 05:51:00,
2013-08-05 23:56:00,66.8,53.4,30.10,NE,44,3.5,3.5,62,0.00,-RA,OVC,0.01,WeatherDisplay:10.37,2013-08-06 05:56:00,